Weather History for KMUO - February, 2013

Change the Weather History Date:

Wednesday, February 20, 2013

  Actual Average Record
Temperature  
Mean Temperature 34 °F 36 °F  
Max Temperature 43 °F 46 °F 70 °F (1977)
Min Temperature 25 °F 25 °F -2 °F (1937)
Degree Days  
Heating Degree Days 31 29  
Month to date heating degree days 588 620  
Cooling Degree Days 0 0  
Month to date cooling degree days 0 0  
Moisture  
Dew Point 20 °F    
Average Humidity 60    
Maximum Humidity 85    
Minimum Humidity 34    
Precipitation  
Precipitation 0.00 in 0.03 in 0.70 in (1968)
Month to date precipitation T 0.58  
Sea Level Pressure  
Sea Level Pressure 29.85 in    
Wind  
Wind Speed 20 mph (NW)    
Max Wind Speed 32 mph    
Max Gust Speed 37 mph    
Visibility 10 miles    
Events      
T = Trace of Precipitation, MM = Missing Value Source: NWS Daily Summary

Daily Weather History Graph

Daily Weather History Graph

Search for Another Location

Airport or City:

Trip Planner

Search our weather history database for the weather conditions in past years. The results will help you decide how hot, cold, wet, or windy it might be!

Date:

Astronomy

Feb. 20, 2013 Rise Set
Actual Time 7:33 AM MST 6:21 PM MST
Civil Twilight 7:04 AM MST 6:50 PM MST
Nautical Twilight 6:31 AM MST 7:23 PM MST
Astronomical Twilight 5:58 AM MST 7:56 PM MST
Moon 1:42 PM MST (2/20) 4:01 AM MST (2/20)
Length of Visible Light 11h 46m
Length of Day
10h 48m
Waxing Gibbous, 76% of the Moon is Illuminated
Feb 20
Waxing Gibbous
Feb 25
Full
Mar 4
Last Quarter
Mar 11
New
Mar 19
First Quarter

Hourly Weather History & Observations

Time (MST) Temp. Windchill Dew Point Humidity Pressure Visibility Wind Dir Wind Speed Gust Speed Precip Events Conditions
12:58 AM 32.0 °F 21.2 °F 27.5 °F 83% 29.72 in 10.0 mi NW 16.1 mph - N/A   Clear
1:58 AM 30.6 °F 20.2 °F 26.6 °F 85% 29.73 in 10.0 mi NW 13.8 mph - N/A   Partly Cloudy
2:58 AM 30.2 °F 17.8 °F 26.2 °F 85% 29.73 in 10.0 mi NW 19.6 mph - N/A   Overcast
3:58 AM 29.7 °F 16.7 °F 24.6 °F 81% 29.78 in 10.0 mi NW 20.7 mph - N/A   Overcast
4:58 AM 28.6 °F 15.3 °F 22.8 °F 79% 29.80 in 10.0 mi NW 20.7 mph - N/A   Mostly Cloudy
5:58 AM 27.9 °F 14.0 °F 21.6 °F 77% 29.81 in 10.0 mi NW 21.9 mph 27.6 mph N/A   Clear
6:58 AM 27.0 °F 13.5 °F 21.0 °F 78% 29.84 in 10.0 mi NW 19.6 mph - N/A   Clear
7:58 AM 26.6 °F 12.0 °F 19.8 °F 75% 29.85 in 10.0 mi NW 23.0 mph 27.6 mph N/A   Clear
8:58 AM 30.0 °F 15.7 °F 20.1 °F 67% 29.87 in 10.0 mi NW 26.5 mph - N/A   Clear
9:58 AM 33.3 °F 20.3 °F 20.5 °F 59% 29.82 in 10.0 mi NW 25.3 mph 33.4 mph N/A   Clear
10:58 AM 36.5 °F 24.0 °F 19.2 °F 50% 29.84 in 10.0 mi NW 28.8 mph 33.4 mph N/A   Clear
12:58 PM 40.6 °F 29.8 °F 19.6 °F 43% 29.86 in 10.0 mi NW 27.6 mph 35.7 mph N/A   Clear
1:58 PM 42.6 °F 31.7 °F 17.8 °F 37% 29.85 in 10.0 mi NW 32.2 mph 35.7 mph N/A   Clear
2:58 PM 42.8 °F 33.5 °F 16.3 °F 34% 29.84 in 10.0 mi NW 23.0 mph 36.8 mph N/A   Clear
3:58 PM 42.4 °F 32.2 °F 16.2 °F 35% 29.84 in 10.0 mi NW 27.6 mph 35.7 mph N/A   Clear
4:58 PM 41.4 °F 31.6 °F 15.1 °F 35% 29.86 in 10.0 mi NW 23.0 mph 31.1 mph N/A   Clear
5:58 PM 39.4 °F 29.5 °F 14.9 °F 37% 29.88 in 10.0 mi WNW 20.7 mph 28.8 mph N/A   Clear
6:58 PM 35.1 °F 25.5 °F 15.3 °F 44% 29.90 in 10.0 mi WNW 15.0 mph - N/A   Clear
7:58 PM 32.5 °F 23.7 °F 16.9 °F 53% 29.92 in 10.0 mi WNW 11.5 mph - N/A   Clear
8:58 PM 31.5 °F 20.9 °F 18.0 °F 57% 29.92 in 10.0 mi NW 15.0 mph - N/A   Clear
9:58 PM 28.0 °F 16.5 °F 17.4 °F 64% 29.94 in 10.0 mi WNW 15.0 mph - N/A   Clear
10:58 PM 28.9 °F 18.6 °F 17.2 °F 62% 29.94 in 10.0 mi WNW 12.7 mph - N/A   Clear
11:58 PM 26.8 °F 15.9 °F 17.1 °F 67% 29.95 in 10.0 mi WNW 12.7 mph - N/A   Clear